| time (UTC) | temp F | wind direction | speed MPH | gust MPH | rain 1hr in | rain 24hr in | rain mn in | humidity % | barometer mb |
| 20260504044604 | 59 | 255 | 0.0 | 2.0 | 0.00 | 0.02 | 0.02 | 71 | 1015.1 |
| 20260504043054 | 59 | 0 | 0.0 | 2.0 | 0.00 | 0.02 | 0.02 | 71 | 1014.8 |
| 20260504041549 | 59 | 237 | 0.0 | 2.0 | 0.00 | 0.02 | 0.02 | 71 | 1014.7 |
| 20260504040106 | 59 | 0 | 1.0 | 3.0 | 0.00 | 0.02 | 0.02 | 71 | 1014.4 |
| 20260504034551 | 59 | 240 | 1.0 | 4.0 | 0.00 | 0.02 | 0.02 | 70 | 1014.7 |
| 20260504033052 | 60 | 282 | 1.0 | 4.0 | 0.00 | 0.02 | 0.02 | 69 | 1014.5 |
| 20260504031548 | 60 | 266 | 1.0 | 7.0 | 0.00 | 0.02 | 0.02 | 69 | 1014.4 |
| 20260504030054 | 60 | 282 | 1.0 | 5.0 | 0.00 | 0.02 | 0.02 | 69 | 1014.2 |
| 20260504024555 | 60 | 287 | 1.0 | 4.0 | 0.00 | 0.02 | 0.02 | 68 | 1014.2 |
| 20260504023057 | 60 | 274 | 2.0 | 5.0 | 0.00 | 0.02 | 0.02 | 68 | 1014.2 |
| 20260504021552 | 60 | 259 | 1.0 | 6.0 | 0.00 | 0.02 | 0.02 | 67 | 1014.3 |
| 20260504020050 | 61 | 269 | 2.0 | 4.0 | 0.00 | 0.02 | 0.02 | 66 | 1014.0 |
| 20260504014553 | 61 | 276 | 0.0 | 5.0 | 0.00 | 0.02 | 0.02 | 63 | 1013.8 |
| 20260504013101 | 62 | 269 | 2.0 | 6.0 | 0.00 | 0.02 | 0.02 | 62 | 1013.8 |
| 20260504011553 | 62 | 253 | 3.0 | 7.0 | 0.00 | 0.02 | 0.02 | 63 | 1013.6 |
| 20260504010057 | 62 | 309 | 4.0 | 8.0 | 0.00 | 0.02 | 0.02 | 62 | 1013.5 |
| 20260504004605 | 63 | 282 | 3.0 | 9.0 | 0.00 | 0.02 | 0.02 | 60 | 1013.1 |
| 20260504003053 | 65 | 230 | 5.0 | 12.0 | 0.00 | 0.02 | 0.02 | 57 | 1012.9 |
| 20260504001552 | 67 | 233 | 5.0 | 10.0 | 0.00 | 0.02 | 0.02 | 54 | 1012.7 |
| 20260504000104 | 69 | 271 | 4.0 | 11.0 | 0.00 | 0.02 | 0.02 | 51 | 1012.4 |
| 20260503234552 | 68 | 305 | 2.0 | 8.0 | 0.00 | 0.02 | 0.02 | 54 | 1012.3 |
| 20260503233052 | 68 | 136 | 3.0 | 7.0 | 0.00 | 0.02 | 0.02 | 54 | 1012.4 |
| 20260503231552 | 69 | 199 | 4.0 | 7.0 | 0.00 | 0.02 | 0.02 | 54 | 1012.4 |
| 20260503230057 | 69 | 220 | 2.0 | 7.0 | 0.00 | 0.02 | 0.02 | 54 | 1012.6 |
| 20260503224618 | 69 | 253 | 2.0 | 6.0 | 0.00 | 0.02 | 0.02 | 57 | 1012.8 |
| 20260503223057 | 67 | 243 | 1.0 | 10.0 | 0.00 | 0.02 | 0.02 | 60 | 1012.8 |
| 20260503221559 | 68 | 229 | 2.0 | 9.0 | 0.00 | 0.02 | 0.02 | 59 | 1013.0 |
| 20260503220116 | 67 | 255 | 2.0 | 9.0 | 0.00 | 0.02 | 0.02 | 61 | 1013.2 |
| 20260503214559 | 66 | 336 | 2.0 | 6.0 | 0.00 | 0.02 | 0.02 | 63 | 1013.6 |
| 20260503213058 | 66 | 312 | 2.0 | 12.0 | 0.00 | 0.02 | 0.02 | 63 | 1013.7 |
| 20260503211557 | 66 | 302 | 3.0 | 8.0 | 0.00 | 0.02 | 0.02 | 62 | 1013.8 |
| 20260503210052 | 65 | 252 | 3.0 | 7.0 | 0.00 | 0.02 | 0.02 | 64 | 1013.8 |
| 20260503204551 | 65 | 273 | 4.0 | 11.0 | 0.00 | 0.02 | 0.02 | 63 | 1013.7 |
| 20260503203057 | 66 | 276 | 1.0 | 6.0 | 0.00 | 0.02 | 0.02 | 64 | 1013.9 |
| 20260503201554 | 66 | 283 | 1.0 | 5.0 | 0.00 | 0.02 | 0.02 | 64 | 1013.9 |
| 20260503200104 | 66 | 245 | 2.0 | 6.0 | 0.00 | 0.02 | 0.02 | 64 | 1014.0 |
| 20260503194556 | 65 | 307 | 2.0 | 7.0 | 0.00 | 0.02 | 0.02 | 67 | 1014.1 |
| 20260503193056 | 64 | 226 | 4.0 | 10.0 | 0.00 | 0.02 | 0.02 | 67 | 1014.1 |
| 20260503191551 | 64 | 302 | 2.0 | 7.0 | 0.00 | 0.02 | 0.02 | 70 | 1014.2 |
| 20260503190056 | 65 | 338 | 2.0 | 7.0 | 0.00 | 0.02 | 0.02 | 70 | 1014.2 |
| 20260503184604 | 66 | 219 | 3.0 | 7.0 | 0.00 | 0.02 | 0.02 | 68 | 1014.2 |
| 20260503183055 | 65 | 282 | 1.0 | 4.0 | 0.00 | 0.02 | 0.02 | 68 | 1014.3 |
| 20260503181554 | 66 | 0 | 0.0 | 0.0 | 0.00 | 0.02 | 0.02 | 70 | 1014.3 |
| 20260503180105 | 65 | 0 | 0.0 | 1.0 | 0.00 | 0.02 | 0.02 | 73 | 1014.4 |
| 20260503174554 | 63 | 1 | 0.0 | 3.0 | 0.00 | 0.02 | 0.02 | 77 | 1014.4 |
| 20260503173102 | 62 | 27 | 0.0 | 4.0 | 0.00 | 0.02 | 0.02 | 79 | 1014.4 |
| 20260503171554 | 61 | 61 | 0.0 | 2.0 | 0.00 | 0.02 | 0.02 | 82 | 1014.4 |
| 20260503160110 | 58 | 0 | 0.0 | 2.0 | 0.01 | 0.02 | 0.02 | 89 | 1014.2 |
| 20260503081551 | 59 | 0 | 0.0 | 0.0 | 0.00 | 0.00 | 0.00 | 86 | 1013.3 |
| 20260503071557 | 59 | 77 | 0.0 | 1.0 | 0.00 | 0.00 | 0.00 | 85 | 1013.8 |
| 20260503060113 | 59 | 181 | 0.0 | 2.0 | 0.00 | 0.00 | 0.00 | 85 | 1013.6 |
| 20260503054620 | 59 | 195 | 0.0 | 2.0 | 0.00 | 0.00 | 0.00 | 85 | 1013.7 |
| 20260503053051 | 58 | 0 | 0.0 | 3.0 | 0.00 | 0.00 | 0.00 | 85 | 1013.5 |